Starlink 6312

operational
NORAD ID: 56536 Int'l Des: 2023-065 Owner: SPXS Country: US Constellation: starlink
LEOCIRCULAR

Starlink 6312について

説明を読み込み中...

リアルタイム位置

3D地球を読み込み中...

次回通過

高度履歴

Altitude vs Time

uPlot chart will show altitude changes over time

軌道要素

1 56536U 23065AK 26063.50352823 .00000214 00000-0 30906-4 0 9995
2 56536 43.0026 251.6212 0001056 275.6628 84.4094 15.02537193155690
Epoch: Mar 4, 2026 • Age: 22 hours

現在のステータス

高度 561.3 km
速度 7.59 km/s
衛星直下点 35.74°N, 168.09°E
打ち上げ日 May 14, 2023
運用期間 2.8 years
タイプ internet

技術仕様

分類 Payload
質量 305.00 kg
乾燥質量 290.00 kg
総質量 305.00 kg
長さ 0.20 m
直径 2.80 m
スパン 9.00 m
形状 Box + pan
製造者 SPXS
バスタイプ Starlink
フェーズステータス In Orbit
所有者/国 SPXS/US

大規模コンステレーション

Loading constellations...